Zurück zum Katalog

COSMOS 444

AktivMilitärLEO
NORAD 5547·PAYLOAD·🇷🇺 Russia

Gestartet Oct 13, 1971 von Plesetsk Cosmodrome

Loading…

Nächste Überflüge (nächste 24 Stunden)

TLE

AktuellSource: Space-Track

Epoche: Sep 14, 2026, 14:18 UTC

1 05547U 71086A   26257.59638786  .00000007  00000-0  13273-3 0  9993
2 05547  74.0313 329.4794 0120275 232.5895 126.4168 12.62139513530302

Verfolge COSMOS 444 in Echtzeit mit AllMySat

Download on the App Store